weather.gov     
National Weather Service

Regional Weather Roundup
NWS Homepage
This page is being discontinued on March 12, 2014.
The same data is available at this site. Please update your bookmarks.
Thank you, and we apologize for the inconvenience.
Please send an email to SR-SRH.Webmaster@noaa.gov with any concerns.


Current Version
Previous Version:    01  02  03  04  05  06  07  08  09  10  11  12  13  14  15  16  17  18  19  20  21  22  23  24  25  26  27  28  29  30  
   31  32  33  34  35  36  37  38  39  40  41  42  43  44  45  46  47  48  49  50  51  52  53  54  55  56  57  58  59  60  
[Printable]
431
ASUS46 KPDT 230125
RWRPDT
PENDLETON REGIONAL WEATHER ROUNDUP
NATIONAL WEATHER SERVICE PENDLETON OREGON
600 PM PDT FRI AUG 22 2014

NOTE: FAIR INDICATES FEW OR NO CLOUDS BELOW 12,000 FEET WITH NO
SIGNIFICANT WEATHER AND/OR OBSTRUCTIONS TO VISIBILITY.

# INDICATES UNOFFICIAL STATION AND DATA

WAZ520-230210-
EAST SLOPES OF WASHINGTON CASCADES

CITY            SKY/WX      TMP DP  RH  WIND    PRES   REMARKS
#CLE ELUM HS    N/A         58  54  87  S1      30.01R
#CLE ELUM 2NW   N/A         59  52  78  SW2     N/A
#CLE ELUM LAKE  N/A         59  56  90  CALM    29.98R
#CLIFFDEL 2NW   N/A         67  50  54  CALM    N/A
#GLENWOOD       N/A         71  54  55  S2      29.96F
#NELSON         N/A         58  54  87  CALM    30.02R
#NELSON 3SW     N/A         57  54  90  CALM    30.19R
#NILE           N/A         62  58  87  W3      29.25R
#RONALD 2NW     N/A         59  53  80  CALM    29.95R
#TEANAWAY 4NE   N/A         66  52  61  SW2     N/A
#TROUT LAKE 1NE N/A         61  57  87  N2      29.97S
$$

WAZ521-230210-
SIMCOE HIGHLANDS

CITY            SKY/WX      TMP DP  RH  WIND    PRES   REMARKS
#BICKLETON HS   N/A         69  37  31  NE7     30.06S
#CENTERVILLE 4W N/A         74  44  34  N5      29.76S
#CENTERVILLE 1SWN/A         74  47  38  N9      29.92S
#GOLDENDALE     N/A         74  53  48  W9      N/A
#GOLDENDALE 1NE N/A         74  39  28  SW7     N/A
#GOLDENDALE 1S  N/A         73  49  43  W7      29.96S
#GOLDENDALE 5WNWN/A         N/A N/A N/A CALM    29.92R
#GOODNOE HILLS  N/A         78  49  36  NW13    29.89S
#LYLE 6NE       N/A         73  48  41  SW7     29.91S
$$

WAZ026-230210-
KITTITAS VALLEY

CITY            SKY/WX      TMP DP  RH  WIND    PRES   REMARKS
ELLENSBURG AP   PTCLDY      71  53  53  W16     30.02R
#ELLENSBURG CWU N/A         68  52  57  NW7     29.92R
#ELLENSBURG 3NE N/A         67  53  61  W7      30.01R
#ELLENSBURG     N/A         71  54  55  N3      N/A
#ELLENSBURG 1E  N/A         68  48  49  CALM    N/A
#KITTITAS 3S    N/A         65  55  70  CALM    29.93R
#THORP 6N       N/A         65  47  52  NW14G24 29.99R
$$

WAZ027-230210-
YAKIMA VALLEY

CITY            SKY/WX      TMP DP  RH  WIND    PRES   REMARKS
SUNNYSIDE AP    THUNDER     77  55  47  N5      29.94R
YAKIMA AIRPORT  PTCLDY      72  58  61  CALM    29.99R
YAKIMA-VAGABOND MOCLDY      77  46  33  S12     30.00R
#COWICHE 1N     N/A         71  49  46  N7      30.17R
#DONALD 2NE     N/A         65  54  68  S2      30.31R
#GRANDVIEW      N/A         79  50  36  W3      29.93R
#MABTON         N/A         77  55  47  NW3     29.93R
#MOXEE 2E       N/A         69  44  40  W3      29.92R
#NACHES 2SW     N/A         72  50  46  N7      30.01S
#OUTLOOK DOT    N/A         N/A N/A N/A S7      N/A
#SELAH 8E       N/A         73  39  29  N7      N/A
#TERRACE HTS    N/A         70  56  61  CALM    29.91R
#TOPPENISH      N/A         66  55  68  NW15G31 29.87R
#WAPATO 4NE     N/A         65  54  68  S2      30.31R
#WEST VALLEY    N/A         67  57  70  CALM    29.92R
#W YAKIMA       N/A         69  56  63  N1      29.94R
#WHITE SWAN 5E  N/A         74  52  46  N8      29.95R
#WILEY CITY 3W  N/A         69  57  66  CALM    29.99R
$$

WAZ028-230210-
LOWER COLUMBIA BASIN...WASHINGTON

CITY            SKY/WX      TMP DP  RH  WIND    PRES   REMARKS
PASCO           PTCLDY      83  51  33  N12     29.90R
PROSSER AWOS    N/A         79  48  34  MISG    29.96R
RICHLAND AWOS   PTCLDY      79  48  34  N14     29.90S
#BASIN CITY 5SW N/A         78  52  40  NW9     29.91R
#BENTON CITY    N/A         78  50  38  NW5     29.80R
#CONNELL 5N     N/A         79  50  36  N9      29.86R
#CONNELL 5NW    N/A         77  52  42  NW6     29.83R
#ELTOPIA        N/A         80  54  41  N3      29.85R
#ELTOPIA 6NW    N/A         78  53  42  NW8     28.89R
#KENNEWICK 3S   N/A         82  54  38  CALM    29.89R
#PATERSON       N/A         77  59  54  N1      29.88S
#PROSSER        N/A         80  44  28  N3      29.91R
#SAGEMOOR 2W    N/A         79  56  45  N3      29.75R
#TOUCHET 2S     N/A         81  54  39  NW5     29.85R
#WEST PASCO     N/A         82  53  37  N5      29.88R
$$

WAZ029-230210-
FOOTHILLS OF THE BLUES...WASHINGTON

CITY            SKY/WX      TMP DP  RH  WIND    PRES   REMARKS
WALLA WALLA AP  THUNDER     68  54  61  S8      29.94R
#COLLEGE PLACE  N/A         75  57  54  S7      29.90R
#DAYTON SCHOOL  N/A         74  45  35  N1      29.93R
#LOWDEN 2SE     N/A         80  55  42  N3      29.86R
#PLEASANT VIEW 1N/A         79  37  22  NW1     29.91R
#PRESCOTT       N/A         79  49  35  CALM    29.85S
#SUDBURY        N/A         73  N/A N/A SE8     N/A
#WHITMAN COLLEGEN/A         66  54  65  S7      29.94R
#WAITSBURG 8N   N/A         78  32  19  S3      29.85R
#WALLA WALLA 5E N/A         74  47  38  E15     N/A
$$

WAZ030-230210-
BLUE MOUNTAINS...WASHINGTON

CITY            SKY/WX      TMP DP  RH  WIND    PRES   REMARKS
$$

ORZ009-041-WAZ024-230210-
COLUMBIA RIVER GORGE

CITY            SKY/WX      TMP DP  RH  WIND    PRES   REMARKS
HOOD RIVER AP   PTCLDY      75  54  48  NW8     29.98S
THE DALLES AP   PTCLDY      80  50  35  NW16    29.94R
#ARLINGTON AIRPON/A         79  49  35  W12     N/A
#ARLINGTON HS   N/A         82  46  28  E6      29.80S
#MARYHILL 2W    N/A         79  44  29  N2      N/A
#MOSIER 1S      N/A         76  44  32  NW13    30.03S
#MURDOCK        N/A         78  56  47  W9      29.94R
#RUFUS DOT      N/A         80  54  41  NE5G31  N/A

$$

ORZ510-230210-
NORTH CENTRAL OREGON

CITY            SKY/WX      TMP DP  RH  WIND    PRES   REMARKS
#CHENOWITH 1W   N/A         71  49  46  NW18    N/A
#COW CYN RST AREN/A         73  39  29  N7      N/A
#DUFUR 9E       N/A         70  48  46  NW17    29.97R
#GRASS VALLEY   N/A         71  46  41  NW6     N/A
#GRASS VALLEY 1SN/A         73  49  43  N9      29.97R
#KENT DOT       N/A         71  41  34  NE10    N/A
#MAUPIN SCHOOL  N/A         79  47  32  N5      28.82R
#MORO SCHOOL    N/A         74  54  50  NW12    30.00R
#SHANIKO 5WSW   N/A         68  38  33  NW13    N/A
#SHANIKO 4NW    N/A         67  37  33  N12     30.04S
#TYGH VALLEY 2NEN/A         77  49  37  N10     29.91S
#WAPANITIA AIRPON/A         72  48  43  NW7     29.94R
#WASCO DOT      N/A         78  50  38  NW12    N/A
#WASCO AIRPORT  N/A         74  45  35  NW6     N/A
#WASCO 5NE      N/A         76  47  36  CALM    29.92R
$$

ORZ511-230210-
CENTRAL OREGON

CITY            SKY/WX      TMP DP  RH  WIND    PRES   REMARKS
BEND AIRPORT    PTCLDY      70  36  29  N7      30.04S
REDMOND AIRPORT PTCLDY      74  37  26  N14     30.01S
#BEND 6E        N/A         68  34  28  CALM    29.88R
#BEND-AWBREY    N/A         68  44  42  CALM    29.93R
#BEND-KIM LN    N/A         69  41  36  N1      30.01R
#CROOKED RVR RANN/A         74  43  33  E5      29.91R
#CULVER         N/A         74  42  32  N7      29.97S
#LAKE BILLY CHINN/A         74   2   6  N12     30.04R
#POWELL BUTTE 3EN/A         72  37  28  N8      N/A
#POWELL BUTTE   N/A         71  43  36  N5      29.67S
#PRINEVILLE 3N  N/A         69  44  40  W12     29.87R
#WARM SPRINGS   N/A         77  47  35  S7      29.95S


ORZ509-230210-
EAST SLOPES OF OREGON CASCADES

CITY            SKY/WX      TMP DP  RH  WIND    PRES   REMARKS
#BLUE BOX PASS  N/A         59   6  12  NW3     N/A
#BLACK BUTTE RNCN/A         67  46  47  CALM    29.95R
#CAMP SHERMAN   N/A         70  48  46  CALM    29.97R
#LA PINE DOT    N/A         65  33  30  NW7     N/A
#LA PINE 4NW    N/A         59  51  75  CALM    29.98S
#LAVA BUTTE DOT N/A         67  37  33  CALM    N/A
#SISTERS AIRPOR N/A         61  56  84  CALM    30.03R
#SISTERS ODOT   N/A         58  N/A N/A N1      N/A
#SISTERS 1NW    N/A         71  40  32  NE8     N/A
#SISTERS 3N     N/A         62  52  70  CALM    N/A
#SUNRIVER       N/A         67  42  40  E2      29.83R
#SUTTLE LK DOT  N/A         66  45  47  CALM    N/A
#TUMALO 3W      N/A         67  43  42  CALM    29.83R
#WANOGA BUTTE D N/A         55  38  53  NE6     N/A

$$

ORZ044-230210-
LOWER COLUMBIA BASIN...OREGON

CITY            SKY/WX      TMP DP  RH  WIND    PRES   REMARKS
HERMISTON       PTCLDY      79  50  36  NW8     29.92R
#BOARDMAN SCHOOLN/A         80  51  36  CALM    29.91R
#BOARDMAN 3W    N/A         80  53  39  SE3     29.62S
#BOARDMAN 8SW   N/A         81  53  38  N6      29.90R
#ECHO 8SW       N/A         77  51  40  CALM    29.91R
#IONE SCHOOL    N/A         78  47  34  NW7     29.93S
#IRRIGON 4NW    N/A         77  58  52  N2      N/A
#UMATILLA SCHOOLN/A         80  62  54  W1      29.98R
#UMATILLA       N/A         80  55  42  CALM    29.88R
$$

ORZ507-230210-
NORTHERN FOOTHILLS OF THE BLUES

CITY            SKY/WX      TMP DP  RH  WIND    PRES   REMARKS
PENDLETON AIRPT PTCLDY      78  48  35  NW18    29.95R
#ADAMS 3WNW     N/A         77  46  33  N8      29.88R
#ATHENA         N/A         77  46  33  NE6     29.91R
#HELIX SCHOOL   N/A         75  45  34  N7      29.88R
#HELIX 3N       N/A         75  45  34  NW7     29.93R
#HOLDMAN 5SE    N/A         77  49  37  W5      29.95R
#HOLDMAN 6E     N/A         77  49  37  NE7     29.71R
#M-FREEWATER 5SEN/A         74  47  38  CALM    29.95R
#PDT AQUATIC CTRN/A         78  48  35  W7      29.93S
#PENDLETON DNTN N/A         78  46  32  NW5     29.89R
#PDT SUNRIDGE   N/A         79  51  38  NW8     29.94R
#PENDLETON 7NW  N/A         75  53  46  W9      25.33S
#PILOT ROCK     N/A         74  47  38  W9      29.98R
#TUTUILLA       N/A         78  55  45  W8      29.83R
#UMAPINE 2E     N/A         76  53  45  E8      29.88R
#WESTON SCHOOL  N/A         74  41  30  E5      29.91R

$$

ORZ508-230210-
SOUTHERN FOOTHILLS OF THE BLUES

CITY            SKY/WX      TMP DP  RH  WIND    PRES   REMARKS
LEXINGTON       PTCLDY      79  43  28  N6      29.98R
#AJAX           N/A         74  41  30  N8      29.94R
#CONDON SCHOOL  N/A         70  45  41  N5      29.98R
#CONDON 5W      N/A         67  44  43  N10     30.01R
#FOSSIL SCHOOL  N/A         72  43  35  NE8     29.98S
#HEPPNER 4NE    N/A         71  43  36  N6      29.91R
#LEXINGTON 2SE  N/A         78  44  30  N2      29.92R
#MIKKALO        N/A         77  44  31  NW13    29.98R
#OLEX 4N        N/A         79  48  34  CALM    29.93S
#RUGGS 5NE      N/A         74  44  34  N5      30.17S
#RUGGS 2SW      N/A         72  41  33  N7      29.96R

$$

ORZ502-503-230210-
BLUE MOUNTAINS

CITY            SKY/WX      TMP DP  RH  WIND    PRES   REMARKS
MEACHAM         LGT RAIN    59  50  72  CALM    30.05R
#BATTLE MTN DOT N/A         62  51  67  N6      N/A
#HARDMAN 10S    N/A         65  42  43  N7      30.10R
#HEPPNER 15SE   N/A         63  43  48  N5      29.97R
#LADD CYN SMT   N/A         56  42  59  NW10    N/A
#LADD CREEK ODOTN/A         59  46  62  NW3     N/A
#LONG CREEK HS  N/A         65  45  48  N5      N/A
#N POWDER DOT   N/A         58  46  64  N20G28  N/A
#PIKES PEAK     N/A         63  37  38  SW7     27.99S
#TOLLGATE       N/A         52  46  80  NE2     30.01R
#TOLLGATE 9W    N/A         68  44  42  NW5     N/A
#TROY SCHOOL    N/A         67  57  70  CALM    29.76R
#UKIAH          N/A         68  45  44  N15     29.96R
#WESTON 4E      N/A         68  44  42  N5      29.85R
$$

ORZ505-230210-
JOHN DAY BASIN

CITY            SKY/WX      TMP DP  RH  WIND    PRES   REMARKS
JOHN DAY        PTCLDY      70  38  31  N12     30.01R
#JOHN DAY KJDY  N/A         74  37  26  W2      30.10R
#MONUMENT HS    N/A         73  41  31  N9      29.97R
#MT. VERNON 5SE N/A         68  39  35  SW5     29.97R
#WINLOCK        N/A         70  42  36  CALM    30.09R
$$

ORZ506-230210-
OCHOCO AND JOHN DAY HIGHLANDS

CITY            SKY/WX      TMP DP  RH  WIND    PRES   REMARKS
#BUCK CREEK DOT N/A         70  40  34  NW12    N/A
#HORSE RIDGE DO N/A         66  34  30  NW12    N/A
#KEYES SMT DOT  N/A         65  41  41  N8      N/A
#PAULINA SCHOOL N/A         71  35  27  N7      30.01S
#PINE MTN OBS   N/A         58  34  40  N6      N/A
#PRAIRIE CITY   N/A         66  40  38  N2      29.89R
#SENECA 9NW     N/A         65  35  33  E2      29.88R
$$

ORZ049-230210-
GRANDE RONDE VALLEY

CITY            SKY/WX      TMP DP  RH  WIND    PRES   REMARKS
LA GRANDE       MOCLDY      57  43  59  S8      30.02R
#COVE           N/A         57  50  77  NE8     29.93R
#COVE SCHOOL    N/A         59  50  72  E1      30.00R
#COVE 6NW       N/A         57  48  72  CALM    29.97R
#ELGIN 3N       N/A         62  44  52  S2      29.74R
#ELGIN 1E       N/A         63  47  56  CALM    N/A
#IMBLER SCHOOL  N/A         60  47  62  SE5     29.98R
#ISLAND CITY 4N N/A         62  46  56  S2      29.87R
#LADD CYN DOT   N/A         58  46  64  NW7     N/A
#LA GRANDE ELEM N/A         61  48  62  S5      30.01R
#UNION 1S       N/A         53  50  89  CALM    29.85R
$$

ORZ050-230210-
WALLOWA COUNTY

CITY            SKY/WX      TMP DP  RH  WIND    PRES   REMARKS
#ENTERPRISE AP  N/A         54  46  74  W6      30.01R
#ENTERPRISE HS  N/A         54  49  83  W7      30.07R
#IMNAHA SCHOOL  N/A         57  53  86  CALM    30.00R
#IMNAHA 10S     N/A         52  49  89  CALM    30.03R
#JOSEPH 3N      N/A         52  46  80  W12     30.09R
#JOSEPH 3W      N/A         48  47  96  S1      29.93R
#MT HOWARD 8000 N/A         38  36  92  N10     30.18R
#PROMISE 1S     N/A         60  45  58  N1      30.06R
#SHEEP RDG 7000 N/A         40  38  92  CALM    29.95R
#WALLOWA SCHOOL N/A         55  48  77  CALM    30.84R



$$




U.S. Dept. of Commerce
NOAA National Weather Service
1325 East West Highway
Silver Spring, MD 20910
E-mail: w-nws.webmaster@noaa.gov
Page last modified: May 16, 2007
NATIONAL WEATHER SERVICE: for Safety, for Work, for Fun - FOR LIFE